RS26S (KAI-1) (53378 NORAD) Tracking and Keplerian Element Data

This shows tracking and keplerian element data for the satellite.

Feedback or suggestion? Click here.




ElementValue
Catalog53378
NameRS26S (KAI-1)
Epoch Orbit1581
Epoch Day325.03480036
Epoch Year2022
RAAN225.807
Inclination97.4273
Eccentricity0.0002905
Argument of Perigee103.5824
Mean Anonmoly12.239
Mean Motion15.26514009
Decay Rate8.159E-05
L11 53378U 22096J 22325.03480036 .00008159 00000+0 31517-3 0 9995
L22 53378 97.4273 225.8070 0002905 103.5824 12.2390 15.26514009 15818



Live tracking and technical data element details for RS26S (KAI-1) (NORAD 53378). RS26S (KAI-1) can be tracked NOW for your location showing map with azimuth and elevation plus other details from your city location.







IsCatalogInMostPopularTable: catalog: 53378, numindb: 5
Update: records affected: 1



GetName: 53378 RS26S (KAI-1)

Hit Count: updated at: Tue, 29 Nov 2022 01:09:32 GMT